Regional Weather Roundup
Issued by NWS

Home | Current Version | Previous Version | Graphics & Text | Print | Product List | Glossary On
Versions: 1 2 3 4 5 6 7 8 9 10 11 12 13 14 15 16 17 18 19 20 21 22 23 24 25 26 27 28 29 30 31 32 33 34 35 36 37 38 39 40 41 42 43 44 45 46 47 48 49 50
000
ASUS43 KOAX 211702
RWRNE

WEATHER ROUNDUP FOR NEBRASKA
NATIONAL WEATHER SERVICE OMAHA NE
1200 PM CDT TUE OCT 21 2014

NOTES: SATELLITE DATA IS BEING USED TO AUGMENT CLOUD COVER ABOVE
       12000 FEET.
       "FAIR" INDICATES FEW OR NO CLOUDS BELOW 12,000 FEET WITH NO
       SIGNIFICANT WEATHER AND/OR OBSTRUCTIONS TO VISIBILITY.

  * THESE STATIONS DO NOT REPORT WEATHER SUCH AS RAIN...SNOW OR FOG.

NEZ001>004-019>022-054>056-211800-
NEBRASKA PANHANDLE

CITY           SKY/WX    TMP DP  RH WIND       PRES   REMARKS
SCOTTSBLUFF    MOSUNNY   62  43  49 CALM      29.96F
ALLIANCE       SUNNY     66  48  52 S10       29.94F
CHADRON        MOSUNNY   71  48  43 SW6       29.88F
KIMBALL        SUNNY     72  38  29 W7        29.98S
SIDNEY         SUNNY     65  48  54 S9        29.99F
$$

NEZ057>060-069>072-079>082-211800-
SOUTHWEST NEBRASKA

CITY           SKY/WX    TMP DP  RH WIND       PRES   REMARKS
NORTH PLATTE   SUNNY     68  53  58 S18       30.03F
IMPERIAL       PTSUNNY   64  56  75 S15G23    30.02F
LEXINGTON      SUNNY     71  44  38 S18G24    30.05F
MC COOK        SUNNY     71  55  56 S17G24    30.04F
OGALLALA       SUNNY     65  55  70 S16G23    30.00S
$$

NEZ005>010-023>029-035>040-094-211800-
NORTH CENTRAL NEBRASKA

CITY           SKY/WX    TMP DP  RH WIND       PRES   REMARKS
VALENTINE      SUNNY     72  48  42 S23G29    29.95S
AINSWORTH      SUNNY     70  46  42 S22G28    29.98F
BROKEN BOW     SUNNY     73  43  33 S18       30.04F
O`NEILL        SUNNY     75  46  35 S20       30.01F
ORD            SUNNY     72  43  35 S16       30.03F
THEDFORD       SUNNY     70  48  45 S18G24    30.01F
$$

NEZ041-046>049-061>064-073>077-083>087-211800-
SOUTH CENTRAL NEBRASKA

CITY           SKY/WX    TMP DP  RH WIND       PRES   REMARKS
GRAND ISLAND   SUNNY     71  45  39 S12       30.08F
AURORA         SUNNY     70  42  37 SW9       30.08F
HASTINGS       SUNNY     72  40  31 S12       30.08F
HEBRON         SUNNY     72  43  34 S8        30.10S
HOLDREGE       SUNNY     68  42  39 S18G24    30.07F
KEARNEY *      SUNNY     72  43  35 SE17G24   30.08S
YORK           SUNNY     72  46  40 S10       30.09F
$$

NEZ011>018-030>034-042>045-211800-
NORTHEAST NEBRASKA

CITY           SKY/WX    TMP DP  RH WIND       PRES   REMARKS
NORFOLK        SUNNY     71  44  37 S15       30.06F
ALBION         SUNNY     67  45  44 S7        30.06F
BLAIR          FAIR      69  39  34 S9        30.11S
COLUMBUS *     SUNNY     72  45  37 S9        30.09F
FREMONT        SUNNY     68  43  40 S9        30.11S
TEKAMAH        SUNNY     67  42  40 SE9       30.10F
$$

NEZ050>053-065>068-078-088>093-211800-
SOUTHEAST NEBRASKA

CITY           SKY/WX    TMP DP  RH WIND       PRES   REMARKS
LINCOLN        SUNNY     69  48  47 SE7       30.11F
OMAHA EPPLEY   SUNNY     65  42  43 SE7       30.12F
BEATRICE       SUNNY     70  48  45 S7        30.10F
FALLS CITY     SUNNY     67  45  45 S5        30.12F
NEBRASKA CITY  SUNNY     65  36  34 SE5       30.13F
PLATTSMOUTH    SUNNY     65  38  37 SE6       30.13S
$$

NEZ044-045-051>053-067-211800-
OMAHA AREA

CITY           SKY/WX    TMP DP  RH WIND       PRES   REMARKS
EPPLEY FIELD   SUNNY     65  42  43 SE7       30.12F
BLAIR          SUNNY     69  39  34 S9        30.11S
FREMONT        SUNNY     68  43  40 S9        30.11S
MILLARD        SUNNY     64  46  52 SE5       30.11F
OFFUTT AFB     SUNNY     66  46  48 SE8       30.11F
PLATTSMOUTH    SUNNY     65  38  37 SE6       30.13S
WAHOO          FAIR      69  41  35 S9        30.10F
$$



USA.gov is the U.S. government's official web portal to all federal, state and local government web resources and services.